Simultaneous Nadir Overpasses (SNOs) Predictions

Prediction of SNOs between GOES-15 and FY3D Satellite Orbit:

Table of predicted SNOs for the next 14.0 days since TLE Epoch: 6/8/2024
Index Date Time (GOES-15) GOES-15 Lat,Lon FY3D Lat,Lon Distance(km) Time Diff (sec)
1 06/08/2024 10:12:12 0.13, 61.41 0.92, 64.88 395.29 80
2 06/09/2024 22:31:38 -0.15, 61.43 0.26, 59.57 212.58 80
3 06/10/2024 22:15:44 -0.14, 61.42 -0.74, 64.07 302.04 80
4 06/12/2024 10:35:18 0.17, 61.36 -0.41, 58.72 300.83 80
5 06/13/2024 10:19:25 0.15, 61.35 0.59, 63.22 213.88 80
6 06/14/2024 22:38:50 -0.18, 61.37 0.58, 57.91 394.01 80
7 06/15/2024 22:22:57 -0.17, 61.36 -0.43, 62.42 120.46 80
8 06/17/2024 10:42:30 0.20, 61.31 -0.76, 57.08 482.96 80
9 06/18/2024 10:26:37 0.19, 61.31 0.26, 61.58 31.16 80
10 06/20/2024 22:27:27 -0.21, 61.34 -0.05, 60.78 64.34 80
11 06/21/2024 22:11:34 -0.20, 61.34 -1.07, 65.28 449.09 80
